Location: Unspecified
(44.4377°N, 88.0525°W)
Time: 13:41:15
(UTC-05:00)

Resurs 1-4 Rocket - Visible Passes

Search period start: 29 September 2016 00:00
Search period end: 09 October 2016 00:00
Orbit: 800 x 814 km, 98.4° (Epoch: 27 September)

Date Brightness Start Highest point End Pass type
(mag) Time Alt. Az. Time Alt. Az. Time Alt. Az.
29 Sep 4.4 02:41:56 10° NE 02:44:13 20° ENE 02:44:13 20° ENE visible
29 Sep 2.8 04:21:20 10° N 04:25:18 39° NW 04:25:18 39° NW visible
30 Sep 4.9 02:18:19 10° NE 02:19:16 13° ENE 02:19:16 13° ENE visible
30 Sep 2.8 03:56:36 10° N 04:00:21 46° N 04:00:21 46° N visible
30 Sep 4.0 05:39:15 10° NW 05:40:48 11° NW 05:41:25 11° WNW visible
01 Oct 3.3 03:32:03 10° NNE 03:35:23 39° NNE 03:35:23 39° NNE visible
01 Oct 3.7 05:13:11 10° NNW 05:16:27 18° WNW 05:16:27 18° WNW visible
02 Oct 3.9 03:07:40 10° NNE 03:10:26 28° NE 03:10:26 28° NE visible
02 Oct 3.3 04:47:58 10° N 04:51:30 26° NW 04:51:30 26° NW visible
03 Oct 4.5 02:43:33 10° NE 02:45:27 19° NE 02:45:27 19° NE visible
03 Oct 3.1 04:23:01 10° N 04:26:33 34° NNW 04:26:33 34° NNW visible
04 Oct 4.9 02:19:53 10° NE 02:20:30 12° NE 02:20:30 12° NE visible
04 Oct 3.1 03:58:18 10° N 04:01:35 38° N 04:01:35 38° N visible
04 Oct 4.1 05:41:13 10° NW 05:42:27 11° NW 05:42:39 11° WNW visible
05 Oct 3.5 03:33:43 10° NNE 03:36:37 33° NNE 03:36:37 33° NNE visible
05 Oct 3.8 05:14:57 10° NNW 05:17:41 17° NW 05:17:41 17° NW visible
06 Oct 4.1 03:09:19 10° NNE 03:11:39 25° NE 03:11:39 25° NE visible
06 Oct 3.5 04:49:41 10° N 04:52:44 24° NW 04:52:44 24° NW visible
07 Oct 4.6 02:45:11 10° NE 02:46:42 17° NE 02:46:42 17° NE visible
07 Oct 3.3 04:24:44 10° N 04:27:46 30° NNW 04:27:46 30° NNW visible
08 Oct 5.0 02:21:28 10° NE 02:21:44 11° NE 02:21:44 11° NE visible
08 Oct 3.4 03:59:58 10° N 04:02:48 32° N 04:02:48 32° N visible
08 Oct 4.1 05:43:15 10° NW 05:43:53 10° NW 05:43:53 10° NW visible
